Location: ?ern� Novina
(50.6762°N, 14.8696°E)
Time: 02:42:26
(UTC+00:00)

Helios 1A Rocket - Pass Details

Date: 03 March 2021
Orbit: 563 x 585 km, 98.3° (Epoch: 13 April)

Event Time Altitude Azimuth Distance (km) Brightness Sun altitude
Rises 17:38:52 0° 155° (SSE) 2,768 6.1 -9.2°
Reaches altitude 10° 17:41:01 10° 153° (SSE) 1,871 5.3 -9.6°
Maximum altitude 17:45:02 65° 72° (ENE) 632 2.9 -10.2°
Drops below altitude 10° 17:49:03 10° 351° (N) 1,876 5.7 -10.9°
Sets 17:51:12 0° 348° (NNW) 2,775 6.6 -11.2°
